contact:dominique.lefevre@mio.osupytheas.fr, maurice.libes@osupytheas.fr, didier.mallarino@osupytheas.fr
Project:EMSO http://www.emso-fr.org/EMSO-France
Depth: 2436.0 m
Title:EMSO Ligure Ouest : Data MII capteur MICROCAT
DateTime_Computer,Latitude,Longitude,Temperature,Conductivity,Pressure,DateTime_Instrument
DateTime_Computer,Latitude,Longitude,degC,S m-1,dbar,DateTime_Instrument
2023-08-26T00:02:16Z,42.805,6.029,13.3052,4.60126,2470.73,2023-8-26T02:04:36Z
2023-08-26T00:05:19Z,42.805,6.029,13.3073,4.60138,2470.74,2023-8-26T02:07:39Z
2023-08-26T00:08:22Z,42.805,6.029,13.3067,4.60122,2470.763,2023-8-26T02:10:42Z
2023-08-26T00:11:25Z,42.805,6.029,13.3059,4.60123,2470.717,2023-8-26T02:13:45Z
2023-08-26T00:14:28Z,42.805,6.029,13.3071,4.60131,2470.74,2023-8-26T02:16:48Z
2023-08-26T00:17:31Z,42.805,6.029,13.3032,4.60132,2470.754,2023-8-26T02:19:51Z
2023-08-26T00:20:34Z,42.805,6.029,13.3034,4.60131,2470.754,2023-8-26T02:22:54Z
2023-08-26T00:23:37Z,42.805,6.029,13.3026,4.60127,2470.763,2023-8-26T02:25:57Z
2023-08-26T00:26:40Z,42.805,6.029,13.3063,4.60120,2470.777,2023-8-26T02:29:01Z
2023-08-26T00:29:43Z,42.805,6.029,13.3047,4.60116,2470.693,2023-8-26T02:32:04Z
2023-08-26T00:32:46Z,42.805,6.029,13.3069,4.60117,2470.75,2023-8-26T02:35:07Z
2023-08-26T00:35:50Z,42.805,6.029,13.3034,4.60144,2470.777,2023-8-26T02:38:10Z
2023-08-26T00:38:53Z,42.805,6.029,13.3031,4.60118,2470.754,2023-8-26T02:41:13Z
2023-08-26T00:41:56Z,42.805,6.029,13.3030,4.60112,2470.777,2023-8-26T02:44:16Z
2023-08-26T00:44:59Z,42.805,6.029,13.3024,4.60113,2470.763,2023-8-26T02:47:19Z
2023-08-26T00:48:02Z,42.805,6.029,13.3027,4.60103,2470.74,2023-8-26T02:50:22Z
2023-08-26T00:51:05Z,42.805,6.029,13.3027,4.60102,2470.777,2023-8-26T02:53:25Z
2023-08-26T00:54:08Z,42.805,6.029,13.3035,4.60099,2470.8,2023-8-26T02:56:28Z
2023-08-26T00:57:11Z,42.805,6.029,13.3060,4.60117,2470.74,2023-8-26T02:59:31Z
2023-08-26T01:00:14Z,42.805,6.029,13.3039,4.60131,2470.777,2023-8-26T03:02:34Z
2023-08-26T01:03:17Z,42.805,6.029,13.3023,4.60114,2470.74,2023-8-26T03:05:38Z
2023-08-26T01:06:20Z,42.805,6.029,13.3020,4.60114,2470.754,2023-8-26T03:08:41Z
2023-08-26T01:09:23Z,42.805,6.029,13.3024,4.60094,2470.73,2023-8-26T03:11:44Z
2023-08-26T01:12:27Z,42.805,6.029,13.3024,4.60090,2470.777,2023-8-26T03:14:47Z
2023-08-26T01:15:30Z,42.805,6.029,13.3023,4.60093,2470.74,2023-8-26T03:17:50Z
2023-08-26T01:18:33Z,42.805,6.029,13.3021,4.60092,2470.777,2023-8-26T03:20:53Z
2023-08-26T01:21:36Z,42.805,6.029,13.3024,4.60091,2470.763,2023-8-26T03:23:56Z
2023-08-26T01:24:39Z,42.805,6.029,13.3024,4.60099,2470.73,2023-8-26T03:26:59Z
2023-08-26T01:27:42Z,42.805,6.029,13.3023,4.60094,2470.74,2023-8-26T03:30:02Z
2023-08-26T01:30:45Z,42.805,6.029,13.3019,4.60094,2470.777,2023-8-26T03:33:05Z
2023-08-26T01:33:48Z,42.805,6.029,13.3024,4.60095,2470.787,2023-8-26T03:36:08Z
2023-08-26T01:36:51Z,42.805,6.029,13.3024,4.60091,2470.763,2023-8-26T03:39:11Z
2023-08-26T01:39:54Z,42.805,6.029,13.3026,4.60092,2470.8,2023-8-26T03:42:14Z
2023-08-26T01:42:57Z,42.805,6.029,13.3023,4.60094,2470.787,2023-8-26T03:45:18Z
2023-08-26T01:46:00Z,42.805,6.029,13.3024,4.60097,2470.787,2023-8-26T03:48:21Z
2023-08-26T01:49:04Z,42.805,6.029,13.3026,4.60094,2470.763,2023-8-26T03:51:24Z
2023-08-26T01:52:07Z,42.805,6.029,13.3024,4.60092,2470.777,2023-8-26T03:54:27Z
2023-08-26T01:55:10Z,42.805,6.029,13.3021,4.60092,2470.754,2023-8-26T03:57:30Z
2023-08-26T01:58:13Z,42.805,6.029,13.3024,4.60091,2470.74,2023-8-26T04:00:33Z
2023-08-26T02:01:16Z,42.805,6.029,13.3027,4.60092,2470.74,2023-8-26T04:03:36Z
2023-08-26T02:04:19Z,42.805,6.029,13.3024,4.60091,2470.754,2023-8-26T04:06:39Z
2023-08-26T02:07:22Z,42.805,6.029,13.3027,4.60097,2470.754,2023-8-26T04:09:42Z
2023-08-26T02:10:25Z,42.805,6.029,13.3026,4.60092,2470.777,2023-8-26T04:12:45Z
2023-08-26T02:13:28Z,42.805,6.029,13.3021,4.60093,2470.74,2023-8-26T04:15:48Z
2023-08-26T02:16:31Z,42.805,6.029,13.3024,4.60100,2470.74,2023-8-26T04:18:52Z
2023-08-26T02:19:34Z,42.805,6.029,13.3024,4.60094,2470.73,2023-8-26T04:21:55Z
2023-08-26T02:22:37Z,42.805,6.029,13.3025,4.60092,2470.754,2023-8-26T04:24:58Z
2023-08-26T02:25:41Z,42.805,6.029,13.3024,4.60095,2470.717,2023-8-26T04:28:01Z
2023-08-26T02:28:44Z,42.805,6.029,13.3025,4.60097,2470.754,2023-8-26T04:31:04Z
2023-08-26T02:31:47Z,42.805,6.029,13.3021,4.60097,2470.754,2023-8-26T04:34:07Z
2023-08-26T02:34:50Z,42.805,6.029,13.3026,4.60102,2470.754,2023-8-26T04:37:10Z
2023-08-26T02:37:53Z,42.805,6.029,13.3027,4.60097,2470.74,2023-8-26T04:40:13Z
2023-08-26T02:40:56Z,42.805,6.029,13.3026,4.60092,2470.73,2023-8-26T04:43:16Z
2023-08-26T02:43:59Z,42.805,6.029,13.3023,4.60097,2470.74,2023-8-26T04:46:19Z
2023-08-26T02:47:02Z,42.805,6.029,13.3023,4.60097,2470.74,2023-8-26T04:49:22Z
2023-08-26T02:50:05Z,42.805,6.029,13.3022,4.60094,2470.74,2023-8-26T04:52:25Z
2023-08-26T02:53:08Z,42.805,6.029,13.3024,4.60093,2470.754,2023-8-26T04:55:29Z
2023-08-26T02:56:11Z,42.805,6.029,13.3025,4.60093,2470.74,2023-8-26T04:58:32Z
2023-08-26T02:59:14Z,42.805,6.029,13.3027,4.60091,2470.754,2023-8-26T05:01:35Z
2023-08-26T03:02:18Z,42.805,6.029,13.3024,4.60092,2470.787,2023-8-26T05:04:38Z
2023-08-26T03:05:21Z,42.805,6.029,13.3024,4.60092,2470.754,2023-8-26T05:07:41Z
2023-08-26T03:08:24Z,42.805,6.029,13.3024,4.60094,2470.754,2023-8-26T05:10:44Z
2023-08-26T03:11:27Z,42.805,6.029,13.3027,4.60092,2470.73,2023-8-26T05:13:47Z
2023-08-26T03:14:30Z,42.805,6.029,13.3023,4.60092,2470.717,2023-8-26T05:16:50Z
2023-08-26T03:17:33Z,42.805,6.029,13.3024,4.60090,2470.777,2023-8-26T05:19:53Z
2023-08-26T03:20:36Z,42.805,6.029,13.3024,4.60094,2470.74,2023-8-26T05:22:56Z
2023-08-26T03:23:39Z,42.805,6.029,13.3026,4.60093,2470.74,2023-8-26T05:25:59Z
2023-08-26T03:26:42Z,42.805,6.029,13.3025,4.60091,2470.707,2023-8-26T05:29:02Z
2023-08-26T03:29:45Z,42.805,6.029,13.3024,4.60092,2470.763,2023-8-26T05:32:06Z
2023-08-26T03:32:48Z,42.805,6.029,13.3026,4.60092,2470.754,2023-8-26T05:35:09Z
2023-08-26T03:35:51Z,42.805,6.029,13.3024,4.60095,2470.754,2023-8-26T05:38:12Z
2023-08-26T03:38:55Z,42.805,6.029,13.3024,4.60091,2470.74,2023-8-26T05:41:15Z
2023-08-26T03:41:58Z,42.805,6.029,13.3025,4.60090,2470.73,2023-8-26T05:44:18Z
2023-08-26T03:45:01Z,42.805,6.029,13.3025,4.60090,2470.74,2023-8-26T05:47:21Z
2023-08-26T03:48:04Z,42.805,6.029,13.3024,4.60089,2470.73,2023-8-26T05:50:24Z
2023-08-26T03:51:07Z,42.805,6.029,13.3026,4.60089,2470.763,2023-8-26T05:53:27Z
2023-08-26T03:54:10Z,42.805,6.029,13.3022,4.60090,2470.74,2023-8-26T05:56:30Z
2023-08-26T03:57:13Z,42.805,6.029,13.3026,4.60088,2470.717,2023-8-26T05:59:33Z
2023-08-26T04:00:16Z,42.805,6.029,13.3025,4.60089,2470.717,2023-8-26T06:02:36Z
2023-08-26T04:03:19Z,42.805,6.029,13.3023,4.60089,2470.74,2023-8-26T06:05:39Z
2023-08-26T04:06:22Z,42.805,6.029,13.3027,4.60088,2470.717,2023-8-26T06:08:43Z
2023-08-26T04:09:25Z,42.805,6.029,13.3026,4.60090,2470.754,2023-8-26T06:11:46Z
2023-08-26T04:12:28Z,42.805,6.029,13.3027,4.60091,2470.754,2023-8-26T06:14:49Z
2023-08-26T04:15:32Z,42.805,6.029,13.3021,4.60091,2470.777,2023-8-26T06:17:52Z
2023-08-26T04:18:35Z,42.805,6.029,13.3022,4.60088,2470.754,2023-8-26T06:20:55Z
2023-08-26T04:21:38Z,42.805,6.029,13.3026,4.60087,2470.754,2023-8-26T06:23:58Z
2023-08-26T04:24:41Z,42.805,6.029,13.3022,4.60089,2470.717,2023-8-26T06:27:01Z
2023-08-26T04:27:44Z,42.805,6.029,13.3024,4.60092,2470.717,2023-8-26T06:30:04Z
2023-08-26T04:30:48Z,42.805,6.029,13.3022,4.60088,2470.717,2023-8-26T06:33:09Z
2023-08-26T04:33:51Z,42.805,6.029,13.3022,4.60088,2470.717,2023-8-26T06:36:12Z
2023-08-26T04:36:54Z,42.805,6.029,13.3024,4.60089,2470.74,2023-8-26T06:39:15Z
2023-08-26T04:39:58Z,42.805,6.029,13.3023,4.60089,2470.73,2023-8-26T06:42:18Z
2023-08-26T04:43:01Z,42.805,6.029,13.3027,4.60088,2470.73,2023-8-26T06:45:21Z
2023-08-26T04:46:04Z,42.805,6.029,13.3026,4.60090,2470.74,2023-8-26T06:48:24Z
2023-08-26T04:49:07Z,42.805,6.029,13.3025,4.60089,2470.73,2023-8-26T06:51:27Z
2023-08-26T04:52:10Z,42.805,6.029,13.3026,4.60092,2470.717,2023-8-26T06:54:30Z
2023-08-26T04:55:13Z,42.805,6.029,13.3025,4.60089,2470.73,2023-8-26T06:57:33Z
2023-08-26T04:58:16Z,42.805,6.029,13.3029,4.60089,2470.717,2023-8-26T07:00:36Z
2023-08-26T05:01:19Z,42.805,6.029,13.3028,4.60089,2470.74,2023-8-26T07:03:39Z
2023-08-26T05:04:22Z,42.805,6.029,13.3024,4.60090,2470.754,2023-8-26T07:06:42Z
2023-08-26T05:07:25Z,42.805,6.029,13.3023,4.60087,2470.74,2023-8-26T07:09:46Z
2023-08-26T05:10:28Z,42.805,6.029,13.3026,4.60088,2470.74,2023-8-26T07:12:49Z
2023-08-26T05:13:31Z,42.805,6.029,13.3023,4.60092,2470.717,2023-8-26T07:15:52Z
2023-08-26T05:16:34Z,42.805,6.029,13.3026,4.60094,2470.717,2023-8-26T07:18:55Z
2023-08-26T05:19:38Z,42.805,6.029,13.3027,4.60089,2470.763,2023-8-26T07:21:58Z
2023-08-26T05:22:41Z,42.805,6.029,13.3026,4.60091,2470.717,2023-8-26T07:25:01Z
2023-08-26T05:25:44Z,42.805,6.029,13.3025,4.60089,2470.693,2023-8-26T07:28:04Z
2023-08-26T05:28:47Z,42.805,6.029,13.3024,4.60092,2470.754,2023-8-26T07:31:07Z
2023-08-26T05:31:50Z,42.805,6.029,13.3026,4.60093,2470.73,2023-8-26T07:34:10Z
2023-08-26T05:34:53Z,42.805,6.029,13.3024,4.60091,2470.717,2023-8-26T07:37:13Z
2023-08-26T05:37:56Z,42.805,6.029,13.3024,4.60093,2470.717,2023-8-26T07:40:16Z
2023-08-26T05:40:59Z,42.805,6.029,13.3024,4.60089,2470.74,2023-8-26T07:43:19Z
2023-08-26T05:44:02Z,42.805,6.029,13.3022,4.60093,2470.73,2023-8-26T07:46:22Z
2023-08-26T05:47:05Z,42.805,6.029,13.3022,4.60097,2470.754,2023-8-26T07:49:26Z
2023-08-26T05:50:08Z,42.805,6.029,13.3020,4.60093,2470.74,2023-8-26T07:52:29Z
2023-08-26T05:53:11Z,42.805,6.029,13.3027,4.60099,2470.73,2023-8-26T07:55:32Z
2023-08-26T05:56:15Z,42.805,6.029,13.3024,4.60089,2470.73,2023-8-26T07:58:35Z
2023-08-26T05:59:18Z,42.805,6.029,13.3024,4.60086,2470.707,2023-8-26T08:01:38Z
2023-08-26T06:02:21Z,42.805,6.029,13.3023,4.60097,2470.693,2023-8-26T08:04:41Z
2023-08-26T06:05:24Z,42.805,6.029,13.3026,4.60092,2470.717,2023-8-26T08:07:44Z
2023-08-26T06:08:27Z,42.805,6.029,13.3026,4.60098,2470.74,2023-8-26T08:10:47Z
2023-08-26T06:11:30Z,42.805,6.029,13.3029,4.60097,2470.73,2023-8-26T08:13:50Z
2023-08-26T06:14:33Z,42.805,6.029,13.3026,4.60092,2470.707,2023-8-26T08:16:53Z
2023-08-26T06:17:36Z,42.805,6.029,13.3022,4.60089,2470.73,2023-8-26T08:19:56Z
2023-08-26T06:20:39Z,42.805,6.029,13.3025,4.60094,2470.693,2023-8-26T08:22:59Z
2023-08-26T06:23:42Z,42.805,6.029,13.3024,4.60093,2470.684,2023-8-26T08:26:03Z
2023-08-26T06:26:45Z,42.805,6.029,13.3024,4.60090,2470.74,2023-8-26T08:29:06Z
2023-08-26T06:29:48Z,42.805,6.029,13.3027,4.60090,2470.707,2023-8-26T08:32:09Z
2023-08-26T06:32:52Z,42.805,6.029,13.3024,4.60087,2470.661,2023-8-26T08:35:12Z
2023-08-26T06:35:55Z,42.805,6.029,13.3024,4.60094,2470.707,2023-8-26T08:38:15Z
2023-08-26T06:38:58Z,42.805,6.029,13.3023,4.60092,2470.67,2023-8-26T08:41:18Z
2023-08-26T06:42:01Z,42.805,6.029,13.3024,4.60090,2470.707,2023-8-26T08:44:21Z
2023-08-26T06:45:04Z,42.805,6.029,13.3022,4.60092,2470.693,2023-8-26T08:47:24Z
2023-08-26T06:48:07Z,42.805,6.029,13.3021,4.60086,2470.717,2023-8-26T08:50:27Z
2023-08-26T06:51:10Z,42.805,6.029,13.3024,4.60087,2470.73,2023-8-26T08:53:30Z
2023-08-26T06:54:13Z,42.805,6.029,13.3027,4.60100,2470.684,2023-8-26T08:56:33Z
2023-08-26T06:57:16Z,42.805,6.029,13.3023,4.60088,2470.684,2023-8-26T08:59:36Z
2023-08-26T07:00:19Z,42.805,6.029,13.3024,4.60096,2470.73,2023-8-26T09:02:40Z
2023-08-26T07:03:22Z,42.805,6.029,13.3021,4.60095,2470.684,2023-8-26T09:05:43Z
2023-08-26T07:06:25Z,42.805,6.029,13.3025,4.60090,2470.693,2023-8-26T09:08:46Z
2023-08-26T07:09:28Z,42.805,6.029,13.3025,4.60094,2470.707,2023-8-26T09:11:49Z
2023-08-26T07:12:32Z,42.805,6.029,13.3022,4.60097,2470.693,2023-8-26T09:14:52Z
2023-08-26T07:15:35Z,42.805,6.029,13.3024,4.60093,2470.707,2023-8-26T09:17:55Z
2023-08-26T07:18:38Z,42.805,6.029,13.3024,4.60098,2470.693,2023-8-26T09:20:58Z
2023-08-26T07:21:41Z,42.805,6.029,13.3024,4.60100,2470.67,2023-8-26T09:24:01Z
2023-08-26T07:24:44Z,42.805,6.029,13.3027,4.60104,2470.693,2023-8-26T09:27:04Z
2023-08-26T07:27:47Z,42.805,6.029,13.3022,4.60089,2470.646,2023-8-26T09:30:07Z
2023-08-26T07:30:50Z,42.805,6.029,13.3022,4.60095,2470.67,2023-8-26T09:33:10Z
2023-08-26T07:33:53Z,42.805,6.029,13.3025,4.60107,2470.624,2023-8-26T09:36:13Z
2023-08-26T07:36:56Z,42.805,6.029,13.3024,4.60087,2470.707,2023-8-26T09:39:16Z
2023-08-26T07:39:59Z,42.805,6.029,13.3025,4.60093,2470.684,2023-8-26T09:42:20Z
2023-08-26T07:43:02Z,42.805,6.029,13.3024,4.60099,2470.693,2023-8-26T09:45:23Z
2023-08-26T07:46:05Z,42.805,6.029,13.3024,4.60090,2470.646,2023-8-26T09:48:26Z
2023-08-26T07:49:09Z,42.805,6.029,13.3026,4.60093,2470.67,2023-8-26T09:51:29Z
2023-08-26T07:52:12Z,42.805,6.029,13.3022,4.60096,2470.693,2023-8-26T09:54:32Z
2023-08-26T07:55:15Z,42.805,6.029,13.3020,4.60095,2470.633,2023-8-26T09:57:35Z
2023-08-26T07:58:18Z,42.805,6.029,13.3024,4.60110,2470.684,2023-8-26T10:00:38Z
2023-08-26T08:01:21Z,42.805,6.029,13.3023,4.60108,2470.693,2023-8-26T10:03:41Z
2023-08-26T08:04:24Z,42.805,6.029,13.3024,4.60099,2470.693,2023-8-26T10:06:44Z
2023-08-26T08:07:27Z,42.805,6.029,13.3023,4.60097,2470.646,2023-8-26T10:09:47Z
2023-08-26T08:10:30Z,42.805,6.029,13.3026,4.60097,2470.684,2023-8-26T10:12:50Z
2023-08-26T08:13:33Z,42.805,6.029,13.3024,4.60099,2470.684,2023-8-26T10:15:53Z
2023-08-26T08:16:36Z,42.805,6.029,13.3022,4.60107,2470.67,2023-8-26T10:18:57Z
2023-08-26T08:19:39Z,42.805,6.029,13.3021,4.60102,2470.684,2023-8-26T10:22:00Z
2023-08-26T08:22:42Z,42.805,6.029,13.3029,4.60088,2470.661,2023-8-26T10:25:03Z
2023-08-26T08:25:46Z,42.805,6.029,13.3025,4.60088,2470.67,2023-8-26T10:28:06Z
2023-08-26T08:28:49Z,42.805,6.029,13.3024,4.60093,2470.661,2023-8-26T10:31:09Z
2023-08-26T08:31:51Z,42.805,6.029,13.3031,4.60090,2470.67,2023-8-26T10:34:11Z
2023-08-26T08:34:54Z,42.805,6.029,13.3022,4.60091,2470.707,2023-8-26T10:37:14Z
2023-08-26T08:37:57Z,42.805,6.029,13.3024,4.60092,2470.646,2023-8-26T10:40:17Z
2023-08-26T08:41:00Z,42.805,6.029,13.3028,4.60095,2470.693,2023-8-26T10:43:20Z
2023-08-26T08:44:03Z,42.805,6.029,13.3026,4.60096,2470.693,2023-8-26T10:46:24Z
2023-08-26T08:47:06Z,42.805,6.029,13.3025,4.60097,2470.661,2023-8-26T10:49:27Z
2023-08-26T08:50:09Z,42.805,6.029,13.3024,4.60103,2470.684,2023-8-26T10:52:30Z
2023-08-26T08:53:13Z,42.805,6.029,13.3036,4.60092,2470.684,2023-8-26T10:55:33Z
2023-08-26T08:56:16Z,42.805,6.029,13.3034,4.60112,2470.684,2023-8-26T10:58:36Z
2023-08-26T08:59:19Z,42.805,6.029,13.3035,4.60102,2470.67,2023-8-26T11:01:39Z
2023-08-26T09:02:22Z,42.805,6.029,13.3037,4.60097,2470.693,2023-8-26T11:04:42Z
2023-08-26T09:05:25Z,42.805,6.029,13.3036,4.60102,2470.707,2023-8-26T11:07:45Z
2023-08-26T09:08:28Z,42.805,6.029,13.3036,4.60104,2470.684,2023-8-26T11:10:48Z
2023-08-26T09:11:31Z,42.805,6.029,13.3039,4.60106,2470.693,2023-8-26T11:13:51Z
2023-08-26T09:14:34Z,42.805,6.029,13.3033,4.60104,2470.684,2023-8-26T11:16:54Z
2023-08-26T09:17:37Z,42.805,6.029,13.3036,4.60098,2470.67,2023-8-26T11:19:57Z
2023-08-26T09:20:40Z,42.805,6.029,13.3040,4.60096,2470.67,2023-8-26T11:23:01Z
2023-08-26T09:23:43Z,42.805,6.029,13.3054,4.60102,2470.684,2023-8-26T11:26:04Z
2023-08-26T09:26:46Z,42.805,6.029,13.3048,4.60102,2470.67,2023-8-26T11:29:07Z
2023-08-26T09:29:50Z,42.805,6.029,13.3048,4.60110,2470.661,2023-8-26T11:32:10Z
2023-08-26T09:32:53Z,42.805,6.029,13.3047,4.60107,2470.707,2023-8-26T11:35:13Z
2023-08-26T09:35:56Z,42.805,6.029,13.3036,4.60121,2470.684,2023-8-26T11:38:16Z
2023-08-26T09:38:59Z,42.805,6.029,13.3043,4.60140,2470.67,2023-8-26T11:41:19Z
2023-08-26T09:42:02Z,42.805,6.029,13.3043,4.60137,2470.67,2023-8-26T11:44:22Z
2023-08-26T09:45:05Z,42.805,6.029,13.3048,4.60128,2470.67,2023-8-26T11:47:25Z
2023-08-26T09:48:08Z,42.805,6.029,13.3057,4.60107,2470.684,2023-8-26T11:50:28Z
2023-08-26T09:51:11Z,42.805,6.029,13.3053,4.60129,2470.707,2023-8-26T11:53:31Z
2023-08-26T09:54:14Z,42.805,6.029,13.3041,4.60131,2470.67,2023-8-26T11:56:35Z
2023-08-26T09:57:17Z,42.805,6.029,13.3036,4.60121,2470.67,2023-8-26T11:59:38Z
2023-08-26T10:00:20Z,42.805,6.029,13.3034,4.60125,2470.684,2023-8-26T12:02:41Z
2023-08-26T10:03:24Z,42.805,6.029,13.3038,4.60156,2470.646,2023-8-26T12:05:44Z
2023-08-26T10:06:27Z,42.805,6.029,13.3046,4.60164,2470.684,2023-8-26T12:08:47Z
2023-08-26T10:09:30Z,42.805,6.029,13.3054,4.60140,2470.67,2023-8-26T12:11:50Z
2023-08-26T10:12:33Z,42.805,6.029,13.3044,4.60175,2470.684,2023-8-26T12:14:53Z
2023-08-26T10:15:36Z,42.805,6.029,13.3048,4.60142,2470.693,2023-8-26T12:17:56Z
2023-08-26T10:18:39Z,42.805,6.029,13.3067,4.60137,2470.646,2023-8-26T12:20:59Z
2023-08-26T10:21:42Z,42.805,6.029,13.3072,4.60142,2470.693,2023-8-26T12:24:02Z
2023-08-26T10:24:45Z,42.805,6.029,13.3079,4.60150,2470.646,2023-8-26T12:27:05Z
2023-08-26T10:27:48Z,42.805,6.029,13.3053,4.60166,2470.693,2023-8-26T12:30:08Z
2023-08-26T10:30:50Z,42.805,6.029,13.3056,4.60185,2470.693,2023-8-26T12:33:10Z
2023-08-26T10:33:53Z,42.805,6.029,13.3068,4.60170,2470.693,2023-8-26T12:36:13Z
2023-08-26T10:36:56Z,42.805,6.029,13.3085,4.60150,2470.693,2023-8-26T12:39:16Z
2023-08-26T10:39:59Z,42.805,6.029,13.3099,4.60150,2470.707,2023-8-26T12:42:19Z
2023-08-26T10:43:02Z,42.805,6.029,13.3068,4.60166,2470.67,2023-8-26T12:45:22Z
2023-08-26T10:46:05Z,42.805,6.029,13.3103,4.60162,2470.693,2023-8-26T12:48:25Z
2023-08-26T10:49:08Z,42.805,6.029,13.3113,4.60144,2470.73,2023-8-26T12:51:28Z
2023-08-26T10:52:11Z,42.805,6.029,13.3123,4.60144,2470.684,2023-8-26T12:54:31Z
2023-08-26T10:55:14Z,42.805,6.029,13.3118,4.60148,2470.693,2023-8-26T12:57:34Z
2023-08-26T10:58:17Z,42.805,6.029,13.3118,4.60157,2470.684,2023-8-26T13:00:38Z
2023-08-26T11:01:20Z,42.805,6.029,13.3116,4.60154,2470.67,2023-8-26T13:03:41Z
2023-08-26T11:04:23Z,42.805,6.029,13.3113,4.60166,2470.707,2023-8-26T13:06:44Z
2023-08-26T11:07:27Z,42.805,6.029,13.3115,4.60165,2470.67,2023-8-26T13:09:47Z
2023-08-26T11:10:30Z,42.805,6.029,13.3116,4.60163,2470.73,2023-8-26T13:12:50Z
2023-08-26T11:13:33Z,42.805,6.029,13.3118,4.60147,2470.74,2023-8-26T13:15:53Z
2023-08-26T11:16:36Z,42.805,6.029,13.3126,4.60172,2470.693,2023-8-26T13:18:56Z
2023-08-26T11:19:39Z,42.805,6.029,13.3120,4.60145,2470.754,2023-8-26T13:21:59Z
2023-08-26T11:22:42Z,42.805,6.029,13.3119,4.60167,2470.707,2023-8-26T13:25:02Z
2023-08-26T11:25:45Z,42.805,6.029,13.3116,4.60145,2470.717,2023-8-26T13:28:05Z
2023-08-26T11:28:48Z,42.805,6.029,13.3123,4.60142,2470.717,2023-8-26T13:31:08Z
2023-08-26T11:31:51Z,42.805,6.029,13.3123,4.60150,2470.74,2023-8-26T13:34:11Z
2023-08-26T11:34:54Z,42.805,6.029,13.3108,4.60128,2470.717,2023-8-26T13:37:15Z
2023-08-26T11:37:57Z,42.805,6.029,13.3116,4.60133,2470.73,2023-8-26T13:40:18Z
2023-08-26T11:41:00Z,42.805,6.029,13.3106,4.60132,2470.73,2023-8-26T13:43:21Z
2023-08-26T11:44:04Z,42.805,6.029,13.3110,4.60137,2470.74,2023-8-26T13:46:24Z
2023-08-26T11:47:07Z,42.805,6.029,13.3110,4.60120,2470.777,2023-8-26T13:49:27Z
2023-08-26T11:50:10Z,42.805,6.029,13.3109,4.60123,2470.74,2023-8-26T13:52:30Z
2023-08-26T11:53:13Z,42.805,6.029,13.3112,4.60139,2470.74,2023-8-26T13:55:33Z
2023-08-26T11:56:16Z,42.805,6.029,13.3101,4.60137,2470.74,2023-8-26T13:58:36Z
2023-08-26T11:59:19Z,42.805,6.029,13.3103,4.60139,2470.73,2023-8-26T14:01:39Z
2023-08-26T12:02:22Z,42.805,6.029,13.3113,4.60154,2470.74,2023-8-26T14:04:42Z
2023-08-26T12:05:25Z,42.805,6.029,13.3102,4.60127,2470.754,2023-8-26T14:07:45Z
2023-08-26T12:08:28Z,42.805,6.029,13.3113,4.60127,2470.717,2023-8-26T14:10:48Z
2023-08-26T12:11:31Z,42.805,6.029,13.3109,4.60143,2470.754,2023-8-26T14:13:52Z
2023-08-26T12:14:34Z,42.805,6.029,13.3103,4.60139,2470.754,2023-8-26T14:16:55Z
2023-08-26T12:17:38Z,42.805,6.029,13.3109,4.60126,2470.74,2023-8-26T14:19:58Z
2023-08-26T12:20:41Z,42.805,6.029,13.3101,4.60127,2470.707,2023-8-26T14:23:01Z
2023-08-26T12:23:44Z,42.805,6.029,13.3103,4.60132,2470.763,2023-8-26T14:26:04Z
2023-08-26T12:26:47Z,42.805,6.029,13.3116,4.60133,2470.763,2023-8-26T14:29:07Z
2023-08-26T12:29:50Z,42.805,6.029,13.3096,4.60137,2470.777,2023-8-26T14:32:10Z
2023-08-26T12:32:53Z,42.805,6.029,13.3108,4.60106,2470.754,2023-8-26T14:35:13Z
2023-08-26T12:35:56Z,42.805,6.029,13.3105,4.60114,2470.73,2023-8-26T14:38:16Z
2023-08-26T12:38:59Z,42.805,6.029,13.3084,4.60113,2470.763,2023-8-26T14:41:19Z
2023-08-26T12:42:02Z,42.805,6.029,13.3094,4.60144,2470.717,2023-8-26T14:44:22Z
2023-08-26T12:45:05Z,42.805,6.029,13.3089,4.60144,2470.763,2023-8-26T14:47:26Z
2023-08-26T12:48:08Z,42.805,6.029,13.3094,4.60125,2470.777,2023-8-26T14:50:29Z
2023-08-26T12:51:11Z,42.805,6.029,13.3089,4.60140,2470.777,2023-8-26T14:53:32Z
2023-08-26T12:54:15Z,42.805,6.029,13.3072,4.60147,2470.763,2023-8-26T14:56:35Z
2023-08-26T12:57:18Z,42.805,6.029,13.3072,4.60146,2470.777,2023-8-26T14:59:38Z
2023-08-26T13:00:21Z,42.805,6.029,13.3072,4.60155,2470.74,2023-8-26T15:02:41Z
2023-08-26T13:03:24Z,42.805,6.029,13.3090,4.60129,2470.74,2023-8-26T15:05:44Z
2023-08-26T13:06:27Z,42.805,6.029,13.3106,4.60128,2470.74,2023-8-26T15:08:47Z
2023-08-26T13:09:30Z,42.805,6.029,13.3115,4.60130,2470.73,2023-8-26T15:11:50Z
2023-08-26T13:12:33Z,42.805,6.029,13.3104,4.60132,2470.777,2023-8-26T15:14:53Z
2023-08-26T13:15:36Z,42.805,6.029,13.3098,4.60132,2470.754,2023-8-26T15:17:56Z
2023-08-26T13:18:39Z,42.805,6.029,13.3098,4.60137,2470.73,2023-8-26T15:21:00Z
2023-08-26T13:21:42Z,42.805,6.029,13.3088,4.60128,2470.74,2023-8-26T15:24:03Z
2023-08-26T13:24:45Z,42.805,6.029,13.3053,4.60137,2470.763,2023-8-26T15:27:06Z
2023-08-26T13:27:48Z,42.805,6.029,13.3067,4.60147,2470.777,2023-8-26T15:30:09Z
2023-08-26T13:30:52Z,42.805,6.029,13.3093,4.60140,2470.777,2023-8-26T15:33:12Z
2023-08-26T13:33:55Z,42.805,6.029,13.3087,4.60185,2470.763,2023-8-26T15:36:15Z
2023-08-26T13:36:58Z,42.805,6.029,13.3096,4.60146,2470.777,2023-8-26T15:39:18Z
2023-08-26T13:40:01Z,42.805,6.029,13.3065,4.60165,2470.763,2023-8-26T15:42:21Z
2023-08-26T13:43:04Z,42.805,6.029,13.3027,4.60192,2470.763,2023-8-26T15:45:24Z
2023-08-26T13:46:07Z,42.805,6.029,13.3029,4.60180,2470.763,2023-8-26T15:48:27Z
2023-08-26T13:49:10Z,42.805,6.029,13.3036,4.60149,2470.754,2023-8-26T15:51:30Z
2023-08-26T13:52:13Z,42.805,6.029,13.3047,4.60132,2470.754,2023-8-26T15:54:33Z
2023-08-26T13:55:16Z,42.805,6.029,13.3081,4.60141,2470.8,2023-8-26T15:57:37Z
2023-08-26T13:58:19Z,42.805,6.029,13.3093,4.60162,2470.787,2023-8-26T16:00:40Z
2023-08-26T14:01:22Z,42.805,6.029,13.3033,4.60172,2470.74,2023-8-26T16:03:43Z
2023-08-26T14:04:26Z,42.805,6.029,13.3031,4.60167,2470.787,2023-8-26T16:06:46Z
2023-08-26T14:07:29Z,42.805,6.029,13.3025,4.60173,2470.763,2023-8-26T16:09:49Z
2023-08-26T14:10:32Z,42.805,6.029,13.3022,4.60172,2470.787,2023-8-26T16:12:52Z
2023-08-26T14:13:35Z,42.805,6.029,13.3026,4.60170,2470.763,2023-8-26T16:15:55Z
2023-08-26T14:16:38Z,42.805,6.029,13.3031,4.60137,2470.787,2023-8-26T16:18:58Z
2023-08-26T14:19:41Z,42.805,6.029,13.3030,4.60119,2470.787,2023-8-26T16:22:01Z
2023-08-26T14:22:44Z,42.805,6.029,13.3029,4.60110,2470.763,2023-8-26T16:25:04Z
2023-08-26T14:25:47Z,42.805,6.029,13.3023,4.60116,2470.787,2023-8-26T16:28:07Z
2023-08-26T14:28:50Z,42.805,6.029,13.3025,4.60112,2470.81,2023-8-26T16:31:10Z
2023-08-26T14:31:53Z,42.805,6.029,13.3024,4.60106,2470.777,2023-8-26T16:34:14Z
2023-08-26T14:34:56Z,42.805,6.029,13.3057,4.60121,2470.787,2023-8-26T16:37:17Z
2023-08-26T14:37:59Z,42.805,6.029,13.3076,4.60125,2470.787,2023-8-26T16:40:20Z
2023-08-26T14:41:03Z,42.805,6.029,13.3074,4.60132,2470.787,2023-8-26T16:43:23Z
2023-08-26T14:44:06Z,42.805,6.029,13.3077,4.60147,2470.787,2023-8-26T16:46:26Z
2023-08-26T14:47:09Z,42.805,6.029,13.3078,4.60125,2470.824,2023-8-26T16:49:29Z
2023-08-26T14:50:12Z,42.805,6.029,13.3087,4.60125,2470.787,2023-8-26T16:52:32Z
2023-08-26T14:53:15Z,42.805,6.029,13.3068,4.60134,2470.81,2023-8-26T16:55:35Z
2023-08-26T14:56:18Z,42.805,6.029,13.3043,4.60125,2470.8,2023-8-26T16:58:38Z
2023-08-26T14:59:21Z,42.805,6.029,13.3044,4.60135,2470.8,2023-8-26T17:01:41Z
2023-08-26T15:02:24Z,42.805,6.029,13.3034,4.60117,2470.787,2023-8-26T17:04:44Z
2023-08-26T15:05:27Z,42.805,6.029,13.3027,4.60128,2470.81,2023-8-26T17:07:48Z
2023-08-26T15:08:30Z,42.805,6.029,13.3025,4.60123,2470.8,2023-8-26T17:10:51Z
2023-08-26T15:11:33Z,42.805,6.029,13.3024,4.60114,2470.824,2023-8-26T17:13:54Z
2023-08-26T15:14:37Z,42.805,6.029,13.3028,4.60113,2470.8,2023-8-26T17:16:57Z